Regional Weather Roundup
Issued by NWS Glasgow, MT

Home | Current Version | Previous Version | Text Only | Print | Product List | Glossary On
Versions: 1 2 3 4 5 6 7 8 9 10 11 12 13 14 15 16 17 18 19 20 21 22 23 24 25 26 27
000
ASUS45 KGGW 191515
RWRGGW
HOURLY REGIONAL WEATHER ROUNDUP FOR NORTHEAST MONTANA
NATIONAL WEATHER SERVICE GLASGOW MONTANA
900 AM MDT SAT AUG 19 2017

NOTE: "FAIR" INDICATES FEW OR NO CLOUDS BELOW 12,000 FEET WITH NO
SIGNIFICANT WEATHER AND/OR OBSTRUCTIONS TO VISISBILITY.

NORTHEAST MONTANA


CITY           SKY/WX    TMP DP  RH WIND       PRES   REMARKS
GLASGOW        CLOUDY    65  47  52 NW21G30   29.83R
PLENTYWOOD       N/A     69  46  43 W3          N/A
WOLF POINT     CLOUDY    69  45  41 W14       29.77R
JORDAN           N/A     76  34  21 NW16G23   29.85R
WINNETT          N/A     79  30  17 W5G20       N/A
SIDNEY         MOSUNNY   66  54  65 S8        29.75S
GLENDIVE       CLOUDY    71  40  32 NW6       29.81R
MALTA            N/A     63  44  50 NW9G18      N/A

FORT PECK REPORTS


CITY           SKY/WX    TMP DP  RH WIND       PRES   REMARKS
FORT PECK        N/A     69  44  40 NW14G26     N/A
THE PINES        N/A     72  32  23 NW9G21      N/A

SOUTHEAST MONTANA


CITY           SKY/WX    TMP DP  RH WIND       PRES   REMARKS
BILLINGS       CLOUDY    68  35  29 SW9       29.96R
MILES CITY     PTSUNNY   63  38  39 S6        29.86R
BAKER          MOSUNNY   77  37  23 W15       29.85R
LIVINGSTON     MOSUNNY   64  39  39 NW10      30.03S

CENTRAL MONTANA


CITY           SKY/WX    TMP DP  RH WIND       PRES   REMARKS
HAVRE          SUNNY     61  44  53 W8        29.98R
LEWISTOWN      SUNNY     67  33  28 NW7       30.01R
GREAT FALLS    SUNNY     58  45  62 N10       30.04R
CUT BANK       PTSUNNY   52  41  66 NW10      30.06R
HELENA         SUNNY     73  31  21 S8        30.03S
BUTTE          CLOUDY    57  31  37 CALM      30.13S
BOZEMAN        MOSUNNY   62  39  42 CALM      30.06S

WESTERN MONTANA


CITY           SKY/WX    TMP DP  RH WIND       PRES   REMARKS
MISSOULA       MOSUNNY   62  37  39 CALM      30.04R
KALISPELL      NOT AVBL

NORTH DAKOTA


CITY           SKY/WX    TMP DP  RH WIND       PRES   REMARKS
WILLISTON      SUNNY     70  53  54 S7        29.73F
DICKINSON      SUNNY     70  53  54 SW10      29.78S
MINOT          SUNNY     74  56  53 S13       29.73F
BISMARCK       SUNNY     71  61  70 SE8       29.81F

SOUTHERN SASKATCHEWAN


CITY           SKY/WX    TMP DP  RH WIND       PRES   REMARKS
REGINA         MOSUNNY   66  50  55 W17G28    29.69R
ESTEVAN        PTSUNNY   75  52  43 S16       29.68F
SWIFT CURRENT  SUNNY     59  45  58 NW24G30   29.84S





USA.gov is the U.S. government's official web portal to all federal, state and local government web resources and services.